Time,TemperatureF,DewpointF,PressureIn,WindDirection,WindDirectionDegrees,WindSpeedMPH,WindSpeedGustMPH,Humidity,HourlyPrecipIn,Conditions,Clouds,dailyrainin,SoftwareType,DateUTC
2013-09-23 00:01:00,57.1,50.6,29.80,North,355,2.0,3.0,79,0.00,,,0.00,LWC V2.10 B1702,2013-09-23 04:01:00,
2013-09-23 00:06:00,57.0,50.5,29.80,NNW,342,0.0,1.0,79,0.00,,,0.00,LWC V2.10 B1702,2013-09-23 04:06:00,
2013-09-23 00:11:00,56.9,50.5,29.80,North,5,0.0,0.0,79,0.00,,,0.00,LWC V2.10 B1702,2013-09-23 04:11:00,
2013-09-23 00:16:00,56.8,50.7,29.80,NE,38,1.0,1.0,80,0.00,,,0.00,LWC V2.10 B1702,2013-09-23 04:16:00,
2013-09-23 00:21:00,56.7,50.9,29.80,North,355,0.0,1.0,81,0.00,,,0.00,LWC V2.10 B1702,2013-09-23 04:21:00,
2013-09-23 00:26:00,56.6,50.8,29.81,NNW,342,1.0,1.0,81,0.00,,,0.00,LWC V2.10 B1702,2013-09-23 04:26:00,
2013-09-23 00:31:00,56.5,50.7,29.81,NNW,348,0.0,3.0,81,0.00,,,0.00,LWC V2.10 B1702,2013-09-23 04:31:00,
2013-09-23 00:36:00,56.4,50.3,29.81,NNE,24,0.0,4.0,80,0.00,,,0.00,LWC V2.10 B1702,2013-09-23 04:36:00,
2013-09-23 00:41:00,56.3,50.5,29.81,North,355,0.0,2.0,81,0.00,,,0.00,LWC V2.10 B1702,2013-09-23 04:41:00,
2013-09-23 00:46:00,56.2,50.4,29.81,NNW,340,0.0,0.0,81,0.00,,,0.00,LWC V2.10 B1702,2013-09-23 04:46:00,
2013-09-23 00:51:00,56.1,50.0,29.82,NNE,19,0.0,1.0,80,0.00,,,0.00,LWC V2.10 B1702,2013-09-23 04:51:00,
2013-09-23 00:56:00,56.0,49.9,29.82,North,5,0.0,4.0,80,0.00,,,0.00,LWC V2.10 B1702,2013-09-23 04:56:00,
2013-09-23 01:01:00,55.9,50.2,29.82,NNW,344,0.0,1.0,81,0.00,,,0.00,LWC V2.10 B1702,2013-09-23 05:01:00,
2013-09-23 01:06:00,55.8,50.1,29.82,NNE,15,1.0,1.0,81,0.00,,,0.00,LWC V2.10 B1702,2013-09-23 05:06:00,
2013-09-23 01:11:00,55.7,49.6,29.82,North,0,2.0,4.0,80,0.00,,,0.00,LWC V2.10 B1702,2013-09-23 05:11:00,
2013-09-23 01:16:00,55.6,49.5,29.82,NNW,337,0.0,2.0,80,0.00,,,0.00,LWC V2.10 B1702,2013-09-23 05:16:00,
2013-09-23 01:21:00,55.5,49.4,29.82,NNE,15,0.0,1.0,80,0.00,,,0.00,LWC V2.10 B1702,2013-09-23 05:21:00,
2013-09-23 01:26:00,55.4,49.3,29.82,NE,50,1.0,2.0,80,0.00,,,0.00,LWC V2.10 B1702,2013-09-23 05:26:00,
2013-09-23 01:31:00,55.3,49.2,29.83,ENE,64,0.0,2.0,80,0.00,,,0.00,LWC V2.10 B1702,2013-09-23 05:31:00,
2013-09-23 01:36:00,55.2,49.1,29.83,NE,42,0.0,2.0,80,0.00,,,0.00,LWC V2.10 B1702,2013-09-23 05:36:00,
2013-09-23 01:41:00,55.1,49.0,29.83,NE,51,0.0,2.0,80,0.00,,,0.00,LWC V2.10 B1702,2013-09-23 05:41:00,
2013-09-23 01:46:00,55.0,48.9,29.83,West,263,0.0,2.0,80,0.00,,,0.00,LWC V2.10 B1702,2013-09-23 05:46:00,
2013-09-23 01:51:00,54.9,48.5,29.83,NNW,345,0.0,2.0,79,0.00,,,0.00,LWC V2.10 B1702,2013-09-23 05:51:00,
2013-09-23 01:56:00,54.8,48.4,29.83,NNE,26,0.0,3.0,79,0.00,,,0.00,LWC V2.10 B1702,2013-09-23 05:56:00,
2013-09-23 02:01:00,54.7,48.0,29.82,NE,44,2.0,5.0,78,0.00,,,0.00,LWC V2.10 B1702,2013-09-23 06:01:00,
2013-09-23 02:06:00,54.6,48.2,29.82,NW,317,1.0,4.0,79,0.00,,,0.00,LWC V2.10 B1702,2013-09-23 06:06:00,
2013-09-23 02:11:00,54.6,48.2,29.82,NE,43,1.0,1.0,79,0.00,,,0.00,LWC V2.10 B1702,2013-09-23 06:11:00,
2013-09-23 02:16:00,54.5,48.5,29.82,SE,127,0.0,0.0,80,0.00,,,0.00,LWC V2.10 B1702,2013-09-23 06:16:00,
2013-09-23 02:21:00,54.4,47.7,29.82,North,5,2.0,4.0,78,0.00,,,0.00,LWC V2.10 B1702,2013-09-23 06:21:00,
2013-09-23 02:26:00,54.3,47.6,29.82,NNE,26,1.0,2.0,78,0.00,,,0.00,LWC V2.10 B1702,2013-09-23 06:26:00,
2013-09-23 02:31:00,54.2,47.5,29.82,NE,34,1.0,5.0,78,0.00,,,0.00,LWC V2.10 B1702,2013-09-23 06:31:00,
2013-09-23 02:36:00,54.2,47.1,29.82,North,355,2.0,4.0,77,0.00,,,0.00,LWC V2.10 B1702,2013-09-23 06:36:00,
2013-09-23 02:41:00,54.2,47.1,29.83,NNE,24,5.0,5.0,77,0.00,,,0.00,LWC V2.10 B1702,2013-09-23 06:41:00,
2013-09-23 02:46:00,54.1,46.7,29.83,NNE,28,1.0,5.0,76,0.00,,,0.00,LWC V2.10 B1702,2013-09-23 06:46:00,
2013-09-23 02:51:00,54.1,47.0,29.83,NNW,342,0.0,1.0,77,0.00,,,0.00,LWC V2.10 B1702,2013-09-23 06:51:00,
2013-09-23 02:57:00,54.1,47.4,29.83,North,0,0.0,1.0,78,0.00,,,0.00,LWC V2.10 B1702,2013-09-23 06:57:00,
2013-09-23 03:02:00,54.0,47.6,29.83,North,9,0.0,1.0,79,0.00,,,0.00,LWC V2.10 B1702,2013-09-23 07:02:00,
2013-09-23 03:07:00,53.9,47.5,29.83,NW,324,2.0,4.0,79,0.00,,,0.00,LWC V2.10 B1702,2013-09-23 07:07:00,
2013-09-23 03:12:00,53.7,47.3,29.83,NNE,15,0.0,4.0,79,0.00,,,0.00,LWC V2.10 B1702,2013-09-23 07:12:00,
2013-09-23 03:17:00,53.7,47.7,29.83,NNW,336,3.0,5.0,80,0.00,,,0.00,LWC V2.10 B1702,2013-09-23 07:17:00,
2013-09-23 03:22:00,53.6,47.6,29.83,NNE,23,0.0,2.0,80,0.00,,,0.00,LWC V2.10 B1702,2013-09-23 07:22:00,
2013-09-23 03:27:00,53.5,47.8,29.83,North,5,1.0,3.0,81,0.00,,,0.00,LWC V2.10 B1702,2013-09-23 07:27:00,
2013-09-23 03:32:00,53.3,47.6,29.84,ENE,57,0.0,4.0,81,0.00,,,0.00,LWC V2.10 B1702,2013-09-23 07:32:00,
2013-09-23 03:37:00,53.2,47.2,29.84,North,0,1.0,5.0,80,0.00,,,0.00,LWC V2.10 B1702,2013-09-23 07:37:00,
2013-09-23 03:42:00,53.0,46.7,29.84,NNW,344,3.0,6.0,79,0.00,,,0.00,LWC V2.10 B1702,2013-09-23 07:42:00,
2013-09-23 03:47:00,52.9,46.6,29.84,North,355,0.0,3.0,79,0.00,,,0.00,LWC V2.10 B1702,2013-09-23 07:47:00,
2013-09-23 03:52:00,52.8,46.5,29.84,ENE,63,0.0,3.0,79,0.00,,,0.00,LWC V2.10 B1702,2013-09-23 07:52:00,
2013-09-23 03:57:00,52.8,46.8,29.85,NNW,347,2.0,2.0,80,0.00,,,0.00,LWC V2.10 B1702,2013-09-23 07:57:00,
2013-09-23 04:02:00,52.7,47.0,29.85,NNW,345,3.0,3.0,81,0.00,,,0.00,LWC V2.10 B1702,2013-09-23 08:02:00,
2013-09-23 04:07:00,52.6,47.3,29.85,NNE,30,0.0,0.0,82,0.00,,,0.00,LWC V2.10 B1702,2013-09-23 08:07:00,
2013-09-23 04:12:00,52.4,47.1,29.85,NNE,13,0.0,4.0,82,0.00,,,0.00,LWC V2.10 B1702,2013-09-23 08:12:00,
2013-09-23 04:17:00,52.3,47.0,29.85,NW,315,0.0,1.0,82,0.00,,,0.00,LWC V2.10 B1702,2013-09-23 08:17:00,
2013-09-23 04:22:00,52.2,46.9,29.85,North,9,0.0,2.0,82,0.00,,,0.00,LWC V2.10 B1702,2013-09-23 08:22:00,
2013-09-23 04:27:00,52.0,46.7,29.85,NNE,32,0.0,2.0,82,0.00,,,0.00,LWC V2.10 B1702,2013-09-23 08:27:00,
2013-09-23 04:32:00,51.9,46.6,29.85,NNE,31,1.0,5.0,82,0.00,,,0.00,LWC V2.10 B1702,2013-09-23 08:32:00,
2013-09-23 04:37:00,51.8,46.5,29.85,NNE,26,3.0,4.0,82,0.00,,,0.00,LWC V2.10 B1702,2013-09-23 08:37:00,
2013-09-23 04:42:00,51.7,46.1,29.85,NNW,333,0.0,5.0,81,0.00,,,0.00,LWC V2.10 B1702,2013-09-23 08:42:00,
2013-09-23 04:47:00,51.7,46.1,29.85,WNW,289,0.0,2.0,81,0.00,,,0.00,LWC V2.10 B1702,2013-09-23 08:47:00,
2013-09-23 04:52:00,51.7,46.1,29.85,NNW,340,1.0,5.0,81,0.00,,,0.00,LWC V2.10 B1702,2013-09-23 08:52:00,
2013-09-23 04:57:00,51.5,45.5,29.85,NE,35,0.0,4.0,80,0.00,,,0.00,LWC V2.10 B1702,2013-09-23 08:57:00,
2013-09-23 05:02:00,51.5,45.9,29.86,NNE,26,0.0,2.0,81,0.00,,,0.00,LWC V2.10 B1702,2013-09-23 09:02:00,
2013-09-23 05:07:00,51.4,45.8,29.86,North,9,1.0,2.0,81,0.00,,,0.00,LWC V2.10 B1702,2013-09-23 09:07:00,
2013-09-23 05:12:00,51.3,45.3,29.86,ENE,58,1.0,1.0,80,0.00,,,0.00,LWC V2.10 B1702,2013-09-23 09:12:00,
2013-09-23 05:17:00,51.3,45.7,29.86,North,5,0.0,0.0,81,0.00,,,0.00,LWC V2.10 B1702,2013-09-23 09:17:00,
2013-09-23 05:22:00,51.2,45.9,29.86,NNE,25,1.0,1.0,82,0.00,,,0.00,LWC V2.10 B1702,2013-09-23 09:22:00,
2013-09-23 05:27:00,51.1,45.1,29.86,North,5,1.0,1.0,80,0.00,,,0.00,LWC V2.10 B1702,2013-09-23 09:27:00,
2013-09-23 05:32:00,51.1,45.5,29.86,North,350,0.0,2.0,81,0.00,,,0.00,LWC V2.10 B1702,2013-09-23 09:32:00,
2013-09-23 05:37:00,51.0,45.4,29.87,ENE,69,0.0,1.0,81,0.00,,,0.00,LWC V2.10 B1702,2013-09-23 09:37:00,
2013-09-23 05:42:00,50.9,45.0,29.87,NNE,23,0.0,0.0,80,0.00,,,0.00,LWC V2.10 B1702,2013-09-23 09:42:00,
2013-09-23 05:47:00,50.9,45.3,29.87,North,355,0.0,0.0,81,0.00,,,0.00,LWC V2.10 B1702,2013-09-23 09:47:00,
2013-09-23 05:52:00,50.8,45.2,29.87,North,350,3.0,4.0,81,0.00,,,0.00,LWC V2.10 B1702,2013-09-23 09:52:00,
2013-09-23 05:57:00,50.7,44.8,29.87,NNE,17,0.0,4.0,80,0.00,,,0.00,LWC V2.10 B1702,2013-09-23 09:57:00,
2013-09-23 06:02:00,50.7,44.8,29.87,NW,320,2.0,2.0,80,0.00,,,0.00,LWC V2.10 B1702,2013-09-23 10:02:00,
2013-09-23 06:07:00,50.6,45.0,29.88,NW,322,0.0,3.0,81,0.00,,,0.00,LWC V2.10 B1702,2013-09-23 10:07:00,
2013-09-23 06:12:00,50.6,45.0,29.88,NNE,28,2.0,5.0,81,0.00,,,0.00,LWC V2.10 B1702,2013-09-23 10:12:00,
2013-09-23 06:17:00,50.6,44.7,29.88,NNE,15,2.0,2.0,80,0.00,,,0.00,LWC V2.10 B1702,2013-09-23 10:17:00,
2013-09-23 06:22:00,50.5,44.6,29.88,NE,36,0.0,2.0,80,0.00,,,0.00,LWC V2.10 B1702,2013-09-23 10:22:00,
2013-09-23 06:27:00,50.5,44.6,29.88,North,5,1.0,2.0,80,0.00,,,0.00,LWC V2.10 B1702,2013-09-23 10:27:00,
2013-09-23 06:32:00,50.4,44.5,29.88,NW,317,0.0,4.0,80,0.00,,,0.00,LWC V2.10 B1702,2013-09-23 10:32:00,
2013-09-23 06:37:00,50.4,44.5,29.88,North,5,0.0,3.0,80,0.00,,,0.00,LWC V2.10 B1702,2013-09-23 10:37:00,
2013-09-23 06:42:00,50.4,44.8,29.89,North,355,1.0,3.0,81,0.00,,,0.00,LWC V2.10 B1702,2013-09-23 10:42:00,
2013-09-23 06:47:00,50.3,44.7,29.89,North,11,2.0,5.0,81,0.00,,,0.00,LWC V2.10 B1702,2013-09-23 10:47:00,
2013-09-23 06:52:00,50.3,44.4,29.89,North,0,0.0,2.0,80,0.00,,,0.00,LWC V2.10 B1702,2013-09-23 10:52:00,
2013-09-23 06:57:00,50.2,44.3,29.89,NW,325,0.0,4.0,80,0.00,,,0.00,LWC V2.10 B1702,2013-09-23 10:57:00,
2013-09-23 07:02:00,50.1,44.2,29.89,North,5,0.0,3.0,80,0.00,,,0.00,LWC V2.10 B1702,2013-09-23 11:02:00,
2013-09-23 07:07:00,50.1,44.2,29.90,NE,45,1.0,3.0,80,0.00,,,0.00,LWC V2.10 B1702,2013-09-23 11:07:00,
2013-09-23 07:12:00,50.2,44.6,29.90,NNE,12,1.0,2.0,81,0.00,,,0.00,LWC V2.10 B1702,2013-09-23 11:12:00,
2013-09-23 07:17:00,50.2,44.6,29.90,NNW,347,0.0,2.0,81,0.00,,,0.00,LWC V2.10 B1702,2013-09-23 11:17:00,
2013-09-23 07:22:00,50.2,44.6,29.90,NNE,20,0.0,4.0,81,0.00,,,0.00,LWC V2.10 B1702,2013-09-23 11:22:00,
2013-09-23 07:27:00,50.2,44.6,29.90,North,5,0.0,4.0,81,0.00,,,0.00,LWC V2.10 B1702,2013-09-23 11:27:00,
2013-09-23 07:32:00,50.3,44.7,29.90,NNE,22,2.0,2.0,81,0.00,,,0.00,LWC V2.10 B1702,2013-09-23 11:32:00,
2013-09-23 07:37:00,50.3,44.4,29.90,NE,43,1.0,3.0,80,0.00,,,0.00,LWC V2.10 B1702,2013-09-23 11:37:00,
2013-09-23 07:42:00,50.4,44.5,29.90,NNW,329,0.0,4.0,80,0.00,,,0.00,LWC V2.10 B1702,2013-09-23 11:42:00,
2013-09-23 07:47:00,50.5,44.6,29.90,NW,326,0.0,4.0,80,0.00,,,0.00,LWC V2.10 B1702,2013-09-23 11:47:00,
2013-09-23 07:52:00,50.6,44.3,29.90,North,355,2.0,3.0,79,0.00,,,0.00,LWC V2.10 B1702,2013-09-23 11:52:00,
2013-09-23 07:57:00,50.7,44.4,29.90,NW,326,0.0,3.0,79,0.00,,,0.00,LWC V2.10 B1702,2013-09-23 11:57:00,
2013-09-23 08:02:00,50.8,44.5,29.90,NW,323,1.0,5.0,79,0.00,,,0.00,LWC V2.10 B1702,2013-09-23 12:02:00,
2013-09-23 08:07:00,51.0,44.7,29.90,NNW,346,4.0,4.0,79,0.00,,,0.00,LWC V2.10 B1702,2013-09-23 12:07:00,
2013-09-23 08:12:00,51.2,44.9,29.90,NNE,28,2.0,3.0,79,0.00,,,0.00,LWC V2.10 B1702,2013-09-23 12:12:00,
2013-09-23 08:17:00,51.3,44.7,29.90,NNW,338,1.0,4.0,78,0.00,,,0.00,LWC V2.10 B1702,2013-09-23 12:17:00,
2013-09-23 08:22:00,51.4,44.4,29.90,North,351,1.0,4.0,77,0.00,,,0.00,LWC V2.10 B1702,2013-09-23 12:22:00,
2013-09-23 08:27:00,51.5,44.5,29.90,North,9,2.0,3.0,77,0.00,,,0.00,LWC V2.10 B1702,2013-09-23 12:27:00,
2013-09-23 08:32:00,51.7,44.7,29.90,North,351,0.0,3.0,77,0.00,,,0.00,LWC V2.10 B1702,2013-09-23 12:32:00,
2013-09-23 08:37:00,51.9,44.9,29.90,East,94,0.0,2.0,77,0.00,,,0.00,LWC V2.10 B1702,2013-09-23 12:37:00,
2013-09-23 08:42:00,52.1,45.8,29.90,NNW,327,0.0,3.0,79,0.00,,,0.00,LWC V2.10 B1702,2013-09-23 12:42:00,
2013-09-23 08:47:00,52.2,44.9,29.90,North,5,1.0,5.0,76,0.00,,,0.00,LWC V2.10 B1702,2013-09-23 12:47:00,
2013-09-23 08:52:00,52.4,44.7,29.90,NNE,25,4.0,4.0,75,0.00,,,0.00,LWC V2.10 B1702,2013-09-23 12:52:00,
2013-09-23 08:57:00,52.5,44.5,29.90,NNE,31,1.0,5.0,74,0.00,,,0.00,LWC V2.10 B1702,2013-09-23 12:57:00,
2013-09-23 09:02:00,52.6,44.6,29.90,NNE,22,1.0,4.0,74,0.00,,,0.00,LWC V2.10 B1702,2013-09-23 13:02:00,
2013-09-23 09:07:00,52.8,44.7,29.90,NNE,29,0.0,7.0,74,0.00,,,0.00,LWC V2.10 B1702,2013-09-23 13:07:00,
2013-09-23 09:12:00,53.1,45.0,29.91,North,11,3.0,6.0,74,0.00,,,0.00,LWC V2.10 B1702,2013-09-23 13:12:00,
2013-09-23 09:17:00,53.2,44.8,29.91,NE,37,0.0,1.0,73,0.00,,,0.00,LWC V2.10 B1702,2013-09-23 13:17:00,
2013-09-23 09:22:00,53.5,45.1,29.91,NNW,328,0.0,1.0,73,0.00,,,0.00,LWC V2.10 B1702,2013-09-23 13:22:00,
2013-09-23 09:27:00,53.8,45.7,29.91,West,281,1.0,4.0,74,0.00,,,0.00,LWC V2.10 B1702,2013-09-23 13:27:00,
2013-09-23 09:32:00,54.0,45.5,29.91,NE,44,0.0,2.0,73,0.00,,,0.00,LWC V2.10 B1702,2013-09-23 13:32:00,
2013-09-23 09:37:00,54.2,45.7,29.91,NE,46,1.0,6.0,73,0.00,,,0.00,LWC V2.10 B1702,2013-09-23 13:37:00,
2013-09-23 09:42:00,54.5,45.7,29.91,NNW,347,1.0,4.0,72,0.00,,,0.00,LWC V2.10 B1702,2013-09-23 13:42:00,
2013-09-23 09:47:00,54.8,45.2,29.91,NNW,347,3.0,5.0,70,0.00,,,0.00,LWC V2.10 B1702,2013-09-23 13:47:00,
2013-09-23 09:52:00,55.1,45.1,29.91,NNE,27,1.0,7.0,69,0.00,,,0.00,LWC V2.10 B1702,2013-09-23 13:52:00,
2013-09-23 09:57:00,55.6,45.6,29.91,NNW,343,0.0,3.0,69,0.00,,,0.00,LWC V2.10 B1702,2013-09-23 13:57:00,
2013-09-23 10:02:00,56.1,46.1,29.91,NNE,17,1.0,2.0,69,0.00,,,0.00,LWC V2.10 B1702,2013-09-23 14:02:00,
2013-09-23 10:07:00,56.9,46.1,29.91,NNW,336,2.0,4.0,67,0.00,,,0.00,LWC V2.10 B1702,2013-09-23 14:07:00,
2013-09-23 10:12:00,57.3,45.6,29.91,NNE,24,1.0,6.0,65,0.00,,,0.00,LWC V2.10 B1702,2013-09-23 14:12:00,
2013-09-23 10:17:00,57.5,45.8,29.91,North,11,0.0,0.0,65,0.00,,,0.00,LWC V2.10 B1702,2013-09-23 14:17:00,
2013-09-23 10:22:00,57.8,46.5,29.91,NNE,22,3.0,6.0,66,0.00,,,0.00,LWC V2.10 B1702,2013-09-23 14:22:00,
2013-09-23 10:27:00,58.0,45.5,29.90,North,0,1.0,2.0,63,0.00,,,0.00,LWC V2.10 B1702,2013-09-23 14:27:00,
2013-09-23 10:32:00,57.8,45.3,29.90,NE,42,1.0,3.0,63,0.00,,,0.00,LWC V2.10 B1702,2013-09-23 14:32:00,
2013-09-23 10:37:00,57.6,45.1,29.90,NE,34,1.0,3.0,63,0.00,,,0.00,LWC V2.10 B1702,2013-09-23 14:37:00,
2013-09-23 10:42:00,57.8,46.1,29.90,NNW,334,2.0,2.0,65,0.00,,,0.00,LWC V2.10 B1702,2013-09-23 14:42:00,
2013-09-23 10:47:00,57.9,46.2,29.90,ENE,68,0.0,2.0,65,0.00,,,0.00,LWC V2.10 B1702,2013-09-23 14:47:00,
2013-09-23 10:52:00,58.1,46.4,29.90,NNW,327,3.0,4.0,65,0.00,,,0.00,LWC V2.10 B1702,2013-09-23 14:52:00,
2013-09-23 10:57:00,58.0,45.9,29.90,NNE,12,1.0,1.0,64,0.00,,,0.00,LWC V2.10 B1702,2013-09-23 14:57:00,
2013-09-23 11:02:00,58.0,46.3,29.90,NE,40,0.0,3.0,65,0.00,,,0.00,LWC V2.10 B1702,2013-09-23 15:02:00,
2013-09-23 11:07:00,57.8,45.7,29.91,NE,47,1.0,3.0,64,0.00,,,0.00,LWC V2.10 B1702,2013-09-23 15:07:00,
2013-09-23 11:12:00,57.9,46.2,29.90,North,350,1.0,1.0,65,0.00,,,0.00,LWC V2.10 B1702,2013-09-23 15:12:00,
2013-09-23 11:17:00,57.7,45.2,29.90,NW,315,1.0,4.0,63,0.00,,,0.00,LWC V2.10 B1702,2013-09-23 15:17:00,
2013-09-23 11:22:00,57.7,46.0,29.90,NE,35,1.0,4.0,65,0.00,,,0.00,LWC V2.10 B1702,2013-09-23 15:22:00,
2013-09-23 11:27:00,57.8,46.1,29.90,NNE,13,2.0,5.0,65,0.00,,,0.00,LWC V2.10 B1702,2013-09-23 15:27:00,
2013-09-23 11:32:00,58.0,46.7,29.91,North,11,0.0,2.0,66,0.00,,,0.00,LWC V2.10 B1702,2013-09-23 15:32:00,
2013-09-23 11:37:00,58.1,46.4,29.91,North,5,0.0,2.0,65,0.00,,,0.00,LWC V2.10 B1702,2013-09-23 15:37:00,
2013-09-23 11:42:00,58.4,46.7,29.91,NW,315,1.0,3.0,65,0.00,,,0.00,LWC V2.10 B1702,2013-09-23 15:42:00,
2013-09-23 11:47:00,58.9,46.7,29.91,NW,317,0.0,1.0,64,0.00,,,0.00,LWC V2.10 B1702,2013-09-23 15:47:00,
2013-09-23 11:52:00,59.4,47.6,29.91,NE,34,2.0,4.0,65,0.00,,,0.00,LWC V2.10 B1702,2013-09-23 15:52:00,
2013-09-23 11:57:00,60.0,46.9,29.90,NNW,329,1.0,3.0,62,0.00,,,0.00,LWC V2.10 B1702,2013-09-23 15:57:00,
2013-09-23 12:02:00,60.2,46.7,29.90,NNW,332,0.0,3.0,61,0.00,,,0.00,LWC V2.10 B1702,2013-09-23 16:02:00,
2013-09-23 12:07:00,60.2,47.1,29.91,WSW,257,1.0,2.0,62,0.00,,,0.00,LWC V2.10 B1702,2013-09-23 16:07:00,
2013-09-23 12:12:00,60.4,46.9,29.90,NNW,338,0.0,1.0,61,0.00,,,0.00,LWC V2.10 B1702,2013-09-23 16:12:00,
2013-09-23 12:17:00,61.0,47.0,29.91,NNE,33,0.0,1.0,60,0.00,,,0.00,LWC V2.10 B1702,2013-09-23 16:17:00,
2013-09-23 12:22:00,61.7,47.7,29.91,NW,306,0.0,0.0,60,0.00,,,0.00,LWC V2.10 B1702,2013-09-23 16:22:00,
2013-09-23 12:27:00,61.4,46.9,29.90,NE,37,1.0,4.0,59,0.00,,,0.00,LWC V2.10 B1702,2013-09-23 16:27:00,
2013-09-23 12:32:00,61.3,47.7,29.91,NNE,22,0.0,2.0,61,0.00,,,0.00,LWC V2.10 B1702,2013-09-23 16:32:00,
2013-09-23 12:37:00,61.3,46.8,29.90,NNW,332,0.0,3.0,59,0.00,,,0.00,LWC V2.10 B1702,2013-09-23 16:37:00,
2013-09-23 12:42:00,61.1,47.1,29.90,NNW,342,0.0,3.0,60,0.00,,,0.00,LWC V2.10 B1702,2013-09-23 16:42:00,
2013-09-23 12:47:00,61.1,47.5,29.91,WNW,296,0.0,4.0,61,0.00,,,0.00,LWC V2.10 B1702,2013-09-23 16:47:00,
2013-09-23 12:52:00,61.3,48.2,29.90,SSW,203,0.0,2.0,62,0.00,,,0.00,LWC V2.10 B1702,2013-09-23 16:52:00,
2013-09-23 12:57:00,61.4,46.9,29.91,NNW,344,2.0,3.0,59,0.00,,,0.00,LWC V2.10 B1702,2013-09-23 16:57:00,
2013-09-23 13:02:00,61.5,47.0,29.90,NW,325,1.0,3.0,59,0.00,,,0.00,LWC V2.10 B1702,2013-09-23 17:02:00,
2013-09-23 13:07:00,61.5,47.0,29.90,WNW,293,0.0,1.0,59,0.00,,,0.00,LWC V2.10 B1702,2013-09-23 17:07:00,
2013-09-23 13:12:00,61.5,47.9,29.90,NNW,339,1.0,3.0,61,0.00,,,0.00,LWC V2.10 B1702,2013-09-23 17:12:00,
2013-09-23 13:17:00,61.9,47.9,29.90,ENE,67,0.0,1.0,60,0.00,,,0.00,LWC V2.10 B1702,2013-09-23 17:17:00,
2013-09-23 13:22:00,62.3,47.8,29.90,NNW,348,2.0,3.0,59,0.00,,,0.00,LWC V2.10 B1702,2013-09-23 17:22:00,
2013-09-23 13:27:00,62.5,48.0,29.90,NW,325,2.0,2.0,59,0.00,,,0.00,LWC V2.10 B1702,2013-09-23 17:27:00,
2013-09-23 13:32:00,62.6,47.6,29.90,WNW,296,0.0,2.0,58,0.00,,,0.00,LWC V2.10 B1702,2013-09-23 17:32:00,
2013-09-23 13:37:00,62.7,48.2,29.90,North,355,0.0,2.0,59,0.00,,,0.00,LWC V2.10 B1702,2013-09-23 17:37:00,
2013-09-23 13:42:00,63.1,48.5,29.90,NNW,348,0.0,1.0,59,0.00,,,0.00,LWC V2.10 B1702,2013-09-23 17:42:00,
2013-09-23 13:47:00,63.2,47.7,29.90,NNW,341,0.0,3.0,57,0.00,,,0.00,LWC V2.10 B1702,2013-09-23 17:47:00,
2013-09-23 13:52:00,62.9,47.9,29.90,NNW,344,0.0,2.0,58,0.00,,,0.00,LWC V2.10 B1702,2013-09-23 17:52:00,
2013-09-23 13:57:00,62.9,48.8,29.90,NNW,333,1.0,1.0,60,0.00,,,0.00,LWC V2.10 B1702,2013-09-23 17:57:00,
2013-09-23 14:02:00,62.6,48.1,29.90,WNW,296,1.0,1.0,59,0.00,,,0.00,LWC V2.10 B1702,2013-09-23 18:02:00,
2013-09-23 14:07:00,62.3,48.7,29.90,West,262,0.0,0.0,61,0.00,,,0.00,LWC V2.10 B1702,2013-09-23 18:07:00,
2013-09-23 14:12:00,62.1,48.0,29.90,WSW,258,0.0,0.0,60,0.00,,,0.00,LWC V2.10 B1702,2013-09-23 18:12:00,
2013-09-23 14:17:00,62.1,48.9,29.90,NW,313,1.0,3.0,62,0.00,,,0.00,LWC V2.10 B1702,2013-09-23 18:17:00,
2013-09-23 14:22:00,62.2,48.6,29.90,NNW,335,0.0,2.0,61,0.00,,,0.00,LWC V2.10 B1702,2013-09-23 18:22:00,
2013-09-23 14:27:00,62.3,48.7,29.90,ENE,67,0.0,0.0,61,0.00,,,0.00,LWC V2.10 B1702,2013-09-23 18:27:00,
2013-09-23 14:32:00,62.3,47.8,29.90,NNW,339,2.0,3.0,59,0.00,,,0.00,LWC V2.10 B1702,2013-09-23 18:32:00,
2013-09-23 14:37:00,62.3,47.8,29.90,WNW,291,1.0,1.0,59,0.00,,,0.00,LWC V2.10 B1702,2013-09-23 18:37:00,
2013-09-23 14:42:00,62.2,48.6,29.90,NW,324,0.0,3.0,61,0.00,,,0.00,LWC V2.10 B1702,2013-09-23 18:42:00,
2013-09-23 14:47:00,62.0,47.5,29.90,North,0,1.0,3.0,59,0.00,,,0.00,LWC V2.10 B1702,2013-09-23 18:47:00,
2013-09-23 14:52:00,62.0,48.8,29.90,NNW,334,1.0,2.0,62,0.00,,,0.00,LWC V2.10 B1702,2013-09-23 18:52:00,
2013-09-23 14:57:00,62.0,48.0,29.90,NE,34,0.0,4.0,60,0.00,,,0.00,LWC V2.10 B1702,2013-09-23 18:57:00,
2013-09-23 15:02:00,62.2,48.6,29.89,NW,324,2.0,3.0,61,0.00,,,0.00,LWC V2.10 B1702,2013-09-23 19:02:00,
2013-09-23 15:07:00,62.2,49.0,29.89,WNW,286,1.0,1.0,62,0.00,,,0.00,LWC V2.10 B1702,2013-09-23 19:07:00,
2013-09-23 15:12:00,62.3,48.7,29.89,WNW,298,2.0,2.0,61,0.00,,,0.00,LWC V2.10 B1702,2013-09-23 19:12:00,
2013-09-23 15:17:00,62.3,48.2,29.89,NNW,340,2.0,3.0,60,0.00,,,0.00,LWC V2.10 B1702,2013-09-23 19:17:00,
2013-09-23 15:22:00,62.3,48.2,29.89,NW,307,2.0,5.0,60,0.00,,,0.00,LWC V2.10 B1702,2013-09-23 19:22:00,
2013-09-23 15:27:00,62.4,47.9,29.89,North,0,0.0,2.0,59,0.00,,,0.00,LWC V2.10 B1702,2013-09-23 19:27:00,
2013-09-23 15:32:00,62.4,48.3,29.89,NNW,346,3.0,3.0,60,0.00,,,0.00,LWC V2.10 B1702,2013-09-23 19:32:00,
2013-09-23 15:37:00,62.4,47.9,29.89,NNW,342,0.0,3.0,59,0.00,,,0.00,LWC V2.10 B1702,2013-09-23 19:37:00,
2013-09-23 15:42:00,62.4,48.3,29.89,WNW,299,0.0,1.0,60,0.00,,,0.00,LWC V2.10 B1702,2013-09-23 19:42:00,
2013-09-23 15:47:00,62.5,48.9,29.89,WNW,296,0.0,2.0,61,0.00,,,0.00,LWC V2.10 B1702,2013-09-23 19:47:00,
2013-09-23 15:52:00,62.5,47.1,29.89,NNE,30,1.0,4.0,57,0.00,,,0.00,LWC V2.10 B1702,2013-09-23 19:52:00,
2013-09-23 15:57:00,62.5,49.3,29.89,NNW,338,0.0,1.0,62,0.00,,,0.00,LWC V2.10 B1702,2013-09-23 19:57:00,
2013-09-23 16:02:00,62.5,49.3,29.89,North,355,0.0,1.0,62,0.00,,,0.00,LWC V2.10 B1702,2013-09-23 20:02:00,
2013-09-23 16:07:00,62.6,49.4,29.89,ENE,57,0.0,2.0,62,0.00,,,0.00,LWC V2.10 B1702,2013-09-23 20:07:00,
2013-09-23 16:12:00,62.8,50.0,29.89,NW,315,0.0,0.0,63,0.00,,,0.00,LWC V2.10 B1702,2013-09-23 20:12:00,
2013-09-23 16:17:00,62.8,50.0,29.89,NNW,339,0.0,3.0,63,0.00,,,0.00,LWC V2.10 B1702,2013-09-23 20:17:00,
2013-09-23 16:22:00,62.8,50.4,29.89,NNW,327,0.0,0.0,64,0.00,,,0.00,LWC V2.10 B1702,2013-09-23 20:22:00,
2013-09-23 16:27:00,62.7,49.9,29.89,NW,315,0.0,1.0,63,0.00,,,0.00,LWC V2.10 B1702,2013-09-23 20:27:00,
2013-09-23 16:32:00,62.7,48.6,29.89,NE,37,0.0,2.0,60,0.00,,,0.00,LWC V2.10 B1702,2013-09-23 20:32:00,
2013-09-23 16:37:00,62.7,49.9,29.89,NNE,30,0.0,2.0,63,0.00,,,0.00,LWC V2.10 B1702,2013-09-23 20:37:00,
2013-09-23 16:42:00,62.5,49.7,29.89,ENE,63,0.0,0.0,63,0.00,,,0.00,LWC V2.10 B1702,2013-09-23 20:42:00,
2013-09-23 16:47:00,62.5,50.6,29.89,NE,45,0.0,0.0,65,0.00,,,0.00,LWC V2.10 B1702,2013-09-23 20:47:00,
2013-09-23 16:52:00,62.4,50.9,29.90,WNW,287,0.0,2.0,66,0.00,,,0.00,LWC V2.10 B1702,2013-09-23 20:52:00,
2013-09-23 16:57:00,62.1,49.3,29.90,NNW,338,0.0,0.0,63,0.00,,,0.00,LWC V2.10 B1702,2013-09-23 20:57:00,
2013-09-23 17:02:00,62.0,50.5,29.90,North,349,0.0,0.0,66,0.00,,,0.00,LWC V2.10 B1702,2013-09-23 21:02:00,
2013-09-23 17:07:00,61.8,50.7,29.90,NNW,348,0.0,0.0,67,0.00,,,0.00,LWC V2.10 B1702,2013-09-23 21:07:00,
2013-09-23 17:12:00,61.6,50.9,29.90,WNW,301,0.0,0.0,68,0.00,,,0.00,LWC V2.10 B1702,2013-09-23 21:12:00,
2013-09-23 17:17:00,61.4,51.5,29.90,WNW,300,0.0,0.0,70,0.00,,,0.00,LWC V2.10 B1702,2013-09-23 21:17:00,
2013-09-23 17:22:00,61.2,50.9,29.90,WNW,303,0.0,0.0,69,0.00,,,0.00,LWC V2.10 B1702,2013-09-23 21:22:00,
2013-09-23 17:27:00,60.9,50.7,29.90,East,90,0.0,0.0,69,0.00,,,0.00,LWC V2.10 B1702,2013-09-23 21:27:00,
2013-09-23 17:32:00,60.7,50.5,29.90,East,86,0.0,0.0,69,0.00,,,0.00,LWC V2.10 B1702,2013-09-23 21:32:00,
2013-09-23 17:37:00,60.6,50.8,29.91,East,86,0.0,0.0,70,0.00,,,0.00,LWC V2.10 B1702,2013-09-23 21:37:00,
2013-09-23 17:42:00,60.5,51.0,29.91,East,86,0.0,0.0,71,0.00,,,0.00,LWC V2.10 B1702,2013-09-23 21:42:00,
2013-09-23 17:47:00,60.2,50.8,29.91,East,87,0.0,0.0,71,0.00,,,0.00,LWC V2.10 B1702,2013-09-23 21:47:00,
2013-09-23 17:52:00,59.9,50.8,29.91,East,87,0.0,0.0,72,0.00,,,0.00,LWC V2.10 B1702,2013-09-23 21:52:00,
2013-09-23 17:57:00,59.7,51.0,29.92,East,89,0.0,0.0,73,0.00,,,0.00,LWC V2.10 B1702,2013-09-23 21:57:00,
2013-09-23 18:02:00,59.4,50.7,29.92,East,89,0.0,0.0,73,0.00,,,0.00,LWC V2.10 B1702,2013-09-23 22:02:00,
2013-09-23 18:07:00,59.1,50.5,29.92,East,89,0.0,0.0,73,0.00,,,0.00,LWC V2.10 B1702,2013-09-23 22:07:00,
2013-09-23 18:12:00,59.0,51.1,29.92,East,89,0.0,0.0,75,0.00,,,0.00,LWC V2.10 B1702,2013-09-23 22:12:00,
2013-09-23 18:17:00,58.6,51.1,29.92,East,89,0.0,0.0,76,0.00,,,0.00,LWC V2.10 B1702,2013-09-23 22:17:00,
2013-09-23 18:22:00,58.2,51.4,29.92,East,89,0.0,0.0,78,0.00,,,0.00,LWC V2.10 B1702,2013-09-23 22:22:00,
2013-09-23 18:27:00,57.8,51.0,29.92,East,89,0.0,0.0,78,0.00,,,0.00,LWC V2.10 B1702,2013-09-23 22:27:00,
2013-09-23 18:32:00,57.4,50.6,29.93,East,89,0.0,0.0,78,0.00,,,0.00,LWC V2.10 B1702,2013-09-23 22:32:00,
2013-09-23 18:37:00,57.1,50.6,29.93,East,89,0.0,0.0,79,0.00,,,0.00,LWC V2.10 B1702,2013-09-23 22:37:00,
2013-09-23 18:42:00,56.7,50.3,29.93,East,89,0.0,0.0,79,0.00,,,0.00,LWC V2.10 B1702,2013-09-23 22:42:00,
2013-09-23 18:47:00,56.5,50.4,29.93,East,89,0.0,0.0,80,0.00,,,0.00,LWC V2.10 B1702,2013-09-23 22:47:00,
2013-09-23 18:52:00,56.2,50.1,29.93,East,89,0.0,0.0,80,0.00,,,0.00,LWC V2.10 B1702,2013-09-23 22:52:00,
2013-09-23 18:57:00,55.8,50.1,29.93,East,89,0.0,0.0,81,0.00,,,0.00,LWC V2.10 B1702,2013-09-23 22:57:00,
2013-09-23 19:02:00,55.4,50.0,29.93,East,89,0.0,0.0,82,0.00,,,0.00,LWC V2.10 B1702,2013-09-23 23:02:00,
2013-09-23 19:07:00,55.1,50.0,29.94,East,89,0.0,0.0,83,0.00,,,0.00,LWC V2.10 B1702,2013-09-23 23:07:00,
2013-09-23 19:12:00,54.8,50.1,29.94,East,89,0.0,0.0,84,0.00,,,0.00,LWC V2.10 B1702,2013-09-23 23:12:00,
2013-09-23 19:17:00,54.6,50.2,29.94,East,89,0.0,0.0,85,0.00,,,0.00,LWC V2.10 B1702,2013-09-23 23:17:00,
2013-09-23 19:22:00,54.3,49.9,29.94,East,89,0.0,0.0,85,0.00,,,0.00,LWC V2.10 B1702,2013-09-23 23:22:00,
2013-09-23 19:27:00,54.0,49.6,29.94,East,89,0.0,0.0,85,0.00,,,0.00,LWC V2.10 B1702,2013-09-23 23:27:00,
2013-09-23 19:32:00,53.8,49.4,29.94,East,89,0.0,0.0,85,0.00,,,0.00,LWC V2.10 B1702,2013-09-23 23:32:00,
2013-09-23 19:37:00,53.6,49.5,29.94,East,89,0.0,0.0,86,0.00,,,0.00,LWC V2.10 B1702,2013-09-23 23:37:00,
2013-09-23 19:42:00,53.5,49.4,29.94,East,89,0.0,0.0,86,0.00,,,0.00,LWC V2.10 B1702,2013-09-23 23:42:00,
2013-09-23 19:47:00,53.3,49.2,29.95,East,89,0.0,0.0,86,0.00,,,0.00,LWC V2.10 B1702,2013-09-23 23:47:00,
2013-09-23 19:52:00,53.2,49.4,29.95,East,89,0.0,0.0,87,0.00,,,0.00,LWC V2.10 B1702,2013-09-23 23:52:00,
2013-09-23 19:57:00,53.0,49.2,29.95,East,89,0.0,0.0,87,0.00,,,0.00,LWC V2.10 B1702,2013-09-23 23:57:00,
2013-09-23 20:02:00,52.8,49.0,29.95,East,89,0.0,0.0,87,0.00,,,0.00,LWC V2.10 B1702,2013-09-24 00:02:00,
2013-09-23 20:07:00,52.6,48.8,29.95,East,89,0.0,0.0,87,0.00,,,0.00,LWC V2.10 B1702,2013-09-24 00:07:00,
2013-09-23 20:12:00,52.3,48.5,29.95,East,89,0.0,0.0,87,0.00,,,0.00,LWC V2.10 B1702,2013-09-24 00:12:00,
2013-09-23 20:17:00,52.1,48.3,29.96,East,89,0.0,0.0,87,0.00,,,0.00,LWC V2.10 B1702,2013-09-24 00:17:00,
2013-09-23 20:22:00,52.0,48.6,29.96,East,89,0.0,0.0,88,0.00,,,0.00,LWC V2.10 B1702,2013-09-24 00:22:00,
2013-09-23 20:27:00,51.8,48.4,29.96,East,89,0.0,0.0,88,0.00,,,0.00,LWC V2.10 B1702,2013-09-24 00:27:00,
2013-09-23 20:32:00,51.7,48.3,29.96,East,89,0.0,0.0,88,0.00,,,0.00,LWC V2.10 B1702,2013-09-24 00:32:00,
2013-09-23 20:37:00,51.5,48.1,29.96,East,89,0.0,0.0,88,0.00,,,0.00,LWC V2.10 B1702,2013-09-24 00:37:00,
2013-09-23 20:42:00,51.3,47.9,29.96,East,89,0.0,0.0,88,0.00,,,0.00,LWC V2.10 B1702,2013-09-24 00:42:00,
2013-09-23 20:47:00,51.2,47.8,29.97,East,89,0.0,0.0,88,0.00,,,0.00,LWC V2.10 B1702,2013-09-24 00:47:00,
2013-09-23 20:52:00,51.0,47.6,29.97,East,89,0.0,0.0,88,0.00,,,0.00,LWC V2.10 B1702,2013-09-24 00:52:00,
2013-09-23 20:57:00,50.9,47.8,29.97,East,89,0.0,0.0,89,0.00,,,0.00,LWC V2.10 B1702,2013-09-24 00:57:00,
2013-09-23 21:02:00,50.8,47.7,29.97,East,89,0.0,0.0,89,0.00,,,0.00,LWC V2.10 B1702,2013-09-24 01:02:00,
2013-09-23 21:07:00,50.8,47.7,29.97,East,89,0.0,0.0,89,0.00,,,0.00,LWC V2.10 B1702,2013-09-24 01:07:00,
2013-09-23 21:12:00,50.7,47.6,29.97,East,89,0.0,0.0,89,0.00,,,0.00,LWC V2.10 B1702,2013-09-24 01:12:00,
2013-09-23 21:17:00,50.6,47.5,29.97,East,89,0.0,0.0,89,0.00,,,0.00,LWC V2.10 B1702,2013-09-24 01:17:00,
2013-09-23 21:22:00,50.5,47.4,29.97,East,89,0.0,0.0,89,0.00,,,0.00,LWC V2.10 B1702,2013-09-24 01:22:00,
2013-09-23 21:27:00,50.3,47.2,29.98,East,89,0.0,0.0,89,0.00,,,0.00,LWC V2.10 B1702,2013-09-24 01:27:00,
2013-09-23 21:32:00,50.1,47.0,29.98,East,89,0.0,0.0,89,0.00,,,0.00,LWC V2.10 B1702,2013-09-24 01:32:00,
2013-09-23 21:37:00,50.0,46.9,29.98,ENE,78,0.0,0.0,89,0.00,,,0.00,LWC V2.10 B1702,2013-09-24 01:37:00,
2013-09-23 21:42:00,49.9,46.8,29.98,ENE,78,0.0,0.0,89,0.00,,,0.00,LWC V2.10 B1702,2013-09-24 01:42:00,
2013-09-23 21:47:00,49.8,46.7,29.98,NNE,26,0.0,0.0,89,0.00,,,0.00,LWC V2.10 B1702,2013-09-24 01:47:00,
2013-09-23 21:52:00,49.7,46.6,29.98,NNE,15,0.0,4.0,89,0.00,,,0.00,LWC V2.10 B1702,2013-09-24 01:52:00,
2013-09-23 21:57:00,49.7,46.6,29.98,NNE,23,0.0,0.0,89,0.00,,,0.00,LWC V2.10 B1702,2013-09-24 01:57:00,
2013-09-23 22:02:00,49.7,46.6,29.98,NNE,31,0.0,0.0,89,0.00,,,0.00,LWC V2.10 B1702,2013-09-24 02:02:00,
2013-09-23 22:07:00,49.8,46.7,29.98,North,11,0.0,1.0,89,0.00,,,0.00,LWC V2.10 B1702,2013-09-24 02:07:00,
2013-09-23 22:12:00,49.9,46.2,29.99,NNE,17,0.0,0.0,87,0.00,,,0.00,LWC V2.10 B1702,2013-09-24 02:12:00,
2013-09-23 22:17:00,50.1,46.7,29.99,North,10,0.0,1.0,88,0.00,,,0.00,LWC V2.10 B1702,2013-09-24 02:17:00,
2013-09-23 22:22:00,50.2,46.2,29.98,NNE,15,0.0,1.0,86,0.00,,,0.00,LWC V2.10 B1702,2013-09-24 02:22:00,
2013-09-23 22:27:00,50.4,46.1,29.98,North,5,1.0,1.0,85,0.00,,,0.00,LWC V2.10 B1702,2013-09-24 02:27:00,
2013-09-23 22:32:00,50.6,46.3,29.98,NNE,20,0.0,2.0,85,0.00,,,0.00,LWC V2.10 B1702,2013-09-24 02:32:00,
2013-09-23 22:37:00,50.7,46.0,29.98,ENE,69,0.0,5.0,84,0.00,,,0.00,LWC V2.10 B1702,2013-09-24 02:37:00,
2013-09-23 22:42:00,50.9,45.9,29.98,NNE,22,0.0,1.0,83,0.00,,,0.00,LWC V2.10 B1702,2013-09-24 02:42:00,
2013-09-23 22:47:00,51.1,45.8,29.98,NNE,30,0.0,2.0,82,0.00,,,0.00,LWC V2.10 B1702,2013-09-24 02:47:00,
2013-09-23 22:52:00,51.3,45.7,29.99,North,350,2.0,7.0,81,0.00,,,0.00,LWC V2.10 B1702,2013-09-24 02:52:00,
2013-09-23 22:57:00,51.4,45.1,29.99,North,9,0.0,1.0,79,0.00,,,0.00,LWC V2.10 B1702,2013-09-24 02:57:00,
2013-09-23 23:02:00,51.5,45.5,29.99,NNE,13,1.0,2.0,80,0.00,,,0.00,LWC V2.10 B1702,2013-09-24 03:02:00,
2013-09-23 23:07:00,51.5,45.5,29.99,NE,55,2.0,5.0,80,0.00,,,0.00,LWC V2.10 B1702,2013-09-24 03:07:00,
2013-09-23 23:12:00,51.5,44.9,29.99,NE,38,0.0,4.0,78,0.00,,,0.00,LWC V2.10 B1702,2013-09-24 03:12:00,
2013-09-23 23:17:00,51.5,44.9,29.99,North,9,1.0,4.0,78,0.00,,,0.00,LWC V2.10 B1702,2013-09-24 03:17:00,
2013-09-23 23:22:00,51.5,44.5,29.99,NNE,30,0.0,5.0,77,0.00,,,0.00,LWC V2.10 B1702,2013-09-24 03:22:00,
2013-09-23 23:27:00,51.4,44.8,29.99,NNE,33,0.0,0.0,78,0.00,,,0.00,LWC V2.10 B1702,2013-09-24 03:27:00,
2013-09-23 23:32:00,51.3,44.7,29.99,NNE,20,0.0,0.0,78,0.00,,,0.00,LWC V2.10 B1702,2013-09-24 03:32:00,
2013-09-23 23:37:00,51.2,44.2,29.99,NE,49,0.0,4.0,77,0.00,,,0.00,LWC V2.10 B1702,2013-09-24 03:37:00,
2013-09-23 23:42:00,51.1,43.8,29.99,North,5,0.0,3.0,76,0.00,,,0.00,LWC V2.10 B1702,2013-09-24 03:42:00,
2013-09-23 23:47:00,51.0,44.4,29.99,North,0,0.0,3.0,78,0.00,,,0.00,LWC V2.10 B1702,2013-09-24 03:47:00,
2013-09-23 23:52:00,50.9,43.9,29.99,NNE,18,0.0,2.0,77,0.00,,,0.00,LWC V2.10 B1702,2013-09-24 03:52:00,
2013-09-23 23:57:00,50.8,43.9,29.99,NNE,12,0.0,2.0,77,0.00,,,0.00,LWC V2.10 B1702,2013-09-24 03:57:00,